Regional Weather Roundup
Issued by NWS Northern Indiana

Home | Current Version | Previous Version | Graphics & Text | Print | Product List | Glossary On
Versions: 1 2 3 4 5 6 7 8 9 10 11 12 13 14 15 16 17 18 19 20 21 22 23 24 25 26 27 28 29 30 31 32 33 34 35 36 37 38 39 40 41 42 43 44 45 46 47 48 49 50
000
ASUS43 KIWX 221201
RWRIWX

KIWX WEATHER ROUNDUP
NATIONAL WEATHER SERVICE NORTHERN INDIANA
800 AM EDT TUE MAY 22 2018

NOTE: "FAIR" INDICATES FEW OR NO CLOUDS BELOW 12,000 FEET WITH NO
SIGNIFICANT WEATHER AND/OR OBSTRUCTIONS TO VISIBILITY.

* THESE STATIONS ARE NOT UNDER NWS QUALITY CONTROL. THEY ALSO MAY NOT
  REPORT WEATHER SUCH AS PRECIPITATION OR FOG.

INZ001>027-221300-
NORTHERN INDIANA

CITY           SKY/WX    TMP DP  RH WIND       PRES   REMARKS
GARY*          FOG       52  52 100 NE5       30.03R VSB 3/4
SOUTH BEND     FOG       60  60 100 CALM      30.00R VSB 1/4
6HR MIN TEMP:  58; 6HR MAX TEMP:  61;

ELKHART*       CLOUDY    61  59  94 CALM      29.99R FOG
GOSHEN         CLOUDY    61  60  97 N3        29.99R FOG
6HR MIN TEMP:  58; 6HR MAX TEMP:  61; 6HR PCP: TRACE;

FORT WAYNE     FOG       65  65 100 SW6       30.01R VSB 1
6HR MIN TEMP:  56; 6HR MAX TEMP:  65;

PERU/GRISSOM   MOSUNNY   67  67 100 SW7       30.00R FOG
6HR MIN TEMP:  63; 6HR MAX TEMP:  67;


$$
INZ028>050-221300-
CENTRAL INDIANA

CITY           SKY/WX    TMP DP  RH WIND       PRES   REMARKS
LAFAYETTE      PTSUNNY  N/A N/A N/A CALM      30.00R FOG
                                      6HR PCP: TRACE;

KOKOMO*        FAIR      67  66  97 S6        30.02R FOG
6HR MIN TEMP:  65; 6HR MAX TEMP:  67;

MUNCIE*        FAIR      70  66  87 SW7       30.02R FOG
6HR MIN TEMP:  67; 6HR MAX TEMP:  70;

INDIANAPOLIS   FOG       66  66 100 SW3       30.03R VSB<1/4
6HR MIN TEMP:  64; 6HR MAX TEMP:  67;


$$
MIZ043>046-050>051-056>058-064>065-071>073-077>080-221300-
SOUTHWEST LOWER MICHIGAN

CITY           SKY/WX    TMP DP  RH WIND       PRES   REMARKS
BATTLE CREEK   LGT RAIN  56  55  97 CALM      30.00S VSB 1
6HR MIN TEMP:  53; 6HR MAX TEMP:  57; 6HR PCP:  0.14;

BENTON HARBOR  CLOUDY    55  54  96 CALM      29.99R FOG
6HR MIN TEMP:  55; 6HR MAX TEMP:  61; 6HR PCP:  0.10;

COLDWATER*     CLOUDY    59  59  99 W5        29.99S FOG
6HR MIN TEMP:  54; 6HR MAX TEMP:  59;

HILLSDALE*     FOG       59  57  94 CALM      29.99R VSB 1/4
GRAND RAPIDS   FOG       54  53  97 E5        29.99R VSB 3/4
6HR MIN TEMP:  53; 6HR MAX TEMP:  54; 6HR PCP:  0.01;

KALAMAZOO      CLOUDY    59  56  89 CALM      30.00R FOG
6HR MIN TEMP:  56; 6HR MAX TEMP:  59; 6HR PCP:  0.01;

STURGIS*       CLOUDY    58  57  96 CALM      29.99R FOG
6HR MIN TEMP:  55; 6HR MAX TEMP:  58;

THREE RIVERS*  CLOUDY    58  57  96 CALM      30.00R FOG
6HR MIN TEMP:  54; 6HR MAX TEMP:  58;


$$
OHZ001>008-015>018-024>025-221300-
NORTHWEST OHIO

CITY           SKY/WX    TMP DP  RH WIND       PRES   REMARKS
DEFIANCE       CLOUDY    58  57  97 CALM      30.00R
6HR MIN TEMP:  54; 6HR MAX TEMP:  58;

FINDLAY        PTSUNNY   68  65  90 SW8       30.00R
6HR MIN TEMP:  63; 6HR MAX TEMP:  68;

TOLEDO EXPRESS CLOUDY    59  59 100 SW5       29.99R FOG
6HR MIN TEMP:  54; 6HR MAX TEMP:  59; 6HR PCP: TRACE;

TOLEDO METCALF FAIR      61  58  90 W3        30.00R FOG
6HR MIN TEMP:  56; 6HR MAX TEMP:  61;

LIMA           PTSUNNY   66  65  96 S8        30.02R FOG
6HR MIN TEMP:  64; 6HR MAX TEMP:  66;


$$
AND FOR LAKE MICHIGAN COASTAL AND OPEN LAKE BUOY OBSERVATIONS

STATION/POSITION TEMP    WIND        PRES    VSBY  WAVE
                 AIR SEA DIR/SP/G                  HT/PER
                 (F)     (DEG/KT/KT) (MB)    (MI)  (FT/S)
CALUMET HARBOR    50     360/  3/  4 1015.6R
BURNS HARBOR      49        CALM     1016.9R
SAINT JOSEPH      54     290/  2/  2 1015.9
4 MI NW BRIDGMAN  50 53  310/  2/  2 1016.4R         1
MICHIGAN CITY     47 53  320/  4/  8   N/A           1/ 2

$$
&&



USA.gov is the U.S. government's official web portal to all federal, state and local government web resources and services.